Voltar ao catálogo

JSW-03

AtivoComunicaçõesLEO
NORAD 62185·PAYLOAD·🇨🇳 China
Este nome de satélite ainda não foi confirmado por fontes oficiais.

Lançado Nov 30, 2024 de Wenchang Space Launch Site

Loading…

Próximas Passagens (próximas 24 horas)

TLE

AtualizadoSource: Space-Track

Época: Sep 14, 2026, 14:58 UTC

1 62185U 24226A   26257.62372204 -.00000129  00000-0  85000-5 0  9997
2 62185  50.0049 286.1304 0056119  70.0503 290.6415 13.60155316 88883

Acompanhe JSW-03 em tempo real com AllMySat

Download on the App Store